Weather in Sarnia

Canada     42°58′41″N   82°23′55″W
temp.,
°C
wind,
m/s
gust,
m/s
humid.,
%
clouds,
%
prec.,
mm/h
press.,
hPa
HPBL,
m
6 march, sat
sat601:00−3nnw6117341 0.0 1024946
04:00−4nnw6107190 0.0 1024992
07:00−5nw5106871 0.0 1025852
10:00−3nnw69520 0.0 1026811
13:00−1nnw57350 0.0 10261063
16:000nnw56390 0.0 10251245
19:00−3nnw36560 0.0 1027267
22:00−4nnw476225 0.0 1027389
7 march, sun
sun701:00−5nnw476313 0.0 1028563
04:00−6nnw35678 0.0 1029417
07:00−7nw356820 0.0 1031520
10:00−5nw455030 0.0 1031748
13:00−1n343315 0.0 1032919
16:00−1ne44440 0.0 1031645
19:00−4ene34670 0.0 1032207
22:00−4se346656 0.0 1032179
8 march, mon
mon801:00−4s466278 0.0 1031268
04:00−2s5116186 0.0 1030286
07:00−1s6126566 0.0 1028327
10:00+4ssw7115989 0.0 1027397
13:00+9sw6116286 0.0 1025705
16:00+9wsw4974100 0.0 1024292
19:00+6w378798 0.0 1026108
22:00+4w359056 0.0 102786
9 march, tue
tue901:00+2w229256 0.0 102722
04:00+2wsw129292 0.0 102822
07:00+3ssw229296 0.0 102822
10:00+7ssw4684100 0.0 1028250
13:00+11ssw5875100 0.0 1026415
16:00+12ssw6106587 0.0 1024801
19:00+8s5117366 0.0 1024216
22:00+7s511790 0.0 1024227
10 march, wed
wed1001:00+8ssw614799 0.0 1023431
04:00+8ssw6148078 0.0 1022444
07:00+7ssw7148673 0.0 1022367
10:00+9ssw8147954 0.0 1021577
13:00+11ssw9157877 0.0 1019691
16:00+11ssw71679100 0.1 1017718
19:00+12ssw91882100 0.1 1015868
22:00+12ssw101885100 0.1 1015857